| time (UTC) | temp C | wind direction | speed KPH | gust KPH | rain 1hr cm | rain 24hr cm | rain mn cm | humidity % | barometer mb |
| 20260508171518 | 5 | 233 | 6.4 | 12.9 | 0.00 | 1.96 | 0.03 | 88 | 1002.4 |
| 20260508170014 | 8 | 233 | 6.4 | 14.5 | 0.00 | 1.96 | 0.03 | 82 | 1002.5 |
| 20260508164514 | 8 | 270 | 4.8 | 11.3 | 0.00 | 1.96 | 0.03 | 84 | 1002.3 |
| 20260508163017 | 8 | 334 | 9.7 | 17.7 | 0.00 | 1.96 | 0.03 | 80 | 1002.2 |
| 20260508161516 | 8 | 351 | 3.2 | 14.5 | 0.00 | 1.96 | 0.03 | 82 | 1001.9 |
| 20260508160010 | 8 | 51 | 8.0 | 14.5 | 0.00 | 1.96 | 0.03 | 83 | 1001.8 |
| 20260508154532 | 8 | 19 | 6.4 | 16.1 | 0.00 | 1.96 | 0.03 | 85 | 1001.9 |
| 20260508153011 | 8 | 333 | 4.8 | 12.9 | 0.00 | 1.96 | 0.03 | 88 | 1001.9 |
| 20260508151511 | 7 | 150 | 1.6 | 8.0 | 0.00 | 1.96 | 0.03 | 90 | 1002.1 |
| 20260508150007 | 7 | 11 | 1.6 | 14.5 | 0.00 | 1.96 | 0.03 | 90 | 1002.3 |
| 20260508144506 | 8 | 254 | 4.8 | 9.7 | 0.00 | 1.96 | 0.03 | 90 | 1002.3 |
| 20260508143008 | 8 | 243 | 4.8 | 8.0 | 0.00 | 1.96 | 0.03 | 91 | 1002.3 |
| 20260508141505 | 7 | 263 | 3.2 | 8.0 | 0.00 | 1.96 | 0.03 | 92 | 1002.5 |
| 20260508140004 | 7 | 256 | 6.4 | 9.7 | 0.00 | 1.96 | 0.03 | 93 | 1002.8 |
| 20260508134504 | 7 | 256 | 4.8 | 11.3 | 0.00 | 1.96 | 0.03 | 93 | 1002.8 |
| 20260508133005 | 7 | 223 | 6.4 | 11.3 | 0.00 | 1.96 | 0.03 | 94 | 1002.6 |
| 20260508131612 | 8 | 287 | 1.6 | 8.0 | 0.00 | 1.96 | 0.03 | 95 | 1002.3 |
| 20260508130058 | 9 | 53 | 1.6 | 6.4 | 0.00 | 1.96 | 0.03 | 96 | 1002.0 |
| 20260508124602 | 7 | 20 | 4.8 | 11.3 | 0.00 | 1.96 | 0.03 | 96 | 1001.9 |
| 20260508123057 | 7 | 5 | 6.4 | 11.3 | 0.00 | 1.96 | 0.03 | 96 | 1002.0 |
| 20260508121555 | 7 | 264 | 1.6 | 3.2 | 0.00 | 1.96 | 0.03 | 95 | 1002.3 |
| 20260508120055 | 7 | 290 | 0.0 | 3.2 | 0.00 | 1.96 | 0.03 | 96 | 1002.2 |
| 20260508114555 | 6 | 31 | 0.0 | 4.8 | 0.00 | 1.96 | 0.03 | 96 | 1002.4 |
| 20260508113055 | 6 | 2 | 0.0 | 1.6 | 0.00 | 1.96 | 0.03 | 96 | 1002.5 |
| 20260508111556 | 6 | 342 | 0.0 | 3.2 | 0.00 | 1.96 | 0.03 | 97 | 1002.3 |
| 20260508110057 | 6 | 274 | 0.0 | 3.2 | 0.00 | 1.96 | 0.03 | 96 | 1002.8 |
| 20260508104552 | 5 | 340 | 0.0 | 0.0 | 0.00 | 1.96 | 0.03 | 97 | 1002.8 |
| 20260508103058 | 5 | 340 | 0.0 | 0.0 | 0.00 | 1.96 | 0.03 | 97 | 1002.7 |
| 20260508101550 | 5 | 340 | 0.0 | 0.0 | 0.00 | 1.96 | 0.03 | 97 | 1002.8 |
| 20260508100106 | 5 | 340 | 0.0 | 0.0 | 0.00 | 1.96 | 0.03 | 97 | 1002.4 |
| 20260508094602 | 4 | 283 | 0.0 | 0.0 | 0.00 | 1.96 | 0.03 | 97 | 1002.3 |
| 20260508093049 | 4 | 278 | 0.0 | 0.0 | 0.00 | 1.96 | 0.03 | 97 | 1002.4 |
| 20260508091549 | 4 | 278 | 0.0 | 3.2 | 0.00 | 1.96 | 0.03 | 96 | 1002.3 |
| 20260508090108 | 5 | 255 | 0.0 | 6.4 | 0.00 | 1.96 | 0.03 | 97 | 1002.0 |
| 20260508084547 | 5 | 262 | 0.0 | 3.2 | 0.00 | 1.96 | 0.03 | 97 | 1001.8 |
| 20260508083043 | 5 | 248 | 1.6 | 3.2 | 0.00 | 1.96 | 0.03 | 96 | 1001.6 |
| 20260508081559 | 5 | 121 | 0.0 | 1.6 | 0.00 | 1.96 | 0.03 | 96 | 1001.3 |
| 20260508080040 | 5 | 120 | 1.6 | 3.2 | 0.03 | 1.96 | 0.03 | 97 | 1001.5 |
| 20260508074540 | 5 | 56 | 0.0 | 3.2 | 0.03 | 1.96 | 0.03 | 96 | 1001.5 |
| 20260508073042 | 5 | 20 | 0.0 | 0.0 | 0.03 | 1.96 | 0.03 | 96 | 1001.8 |
| 20260508071535 | 6 | 32 | 0.0 | 0.0 | 0.03 | 1.96 | 0.03 | 96 | 1001.6 |
| 20260508070033 | 6 | 32 | 0.0 | 0.0 | 0.00 | 1.93 | 0.00 | 96 | 1001.9 |
| 20260508064535 | 6 | 32 | 0.0 | 0.0 | 0.00 | 1.93 | 0.00 | 96 | 1001.8 |
| 20260508063036 | 6 | 22 | 0.0 | 3.2 | 0.00 | 1.93 | 0.00 | 97 | 1001.7 |
| 20260508061536 | 6 | 60 | 1.6 | 4.8 | 0.00 | 1.93 | 0.00 | 97 | 1001.8 |
| 20260508060029 | 6 | 50 | 3.2 | 8.0 | 0.00 | 1.93 | 0.00 | 96 | 1001.8 |
| 20260508054534 | 6 | 34 | 8.0 | 11.3 | 0.00 | 1.93 | 0.00 | 96 | 1002.2 |
| 20260508053032 | 6 | 70 | 1.6 | 8.0 | 0.00 | 1.93 | 0.00 | 96 | 1002.5 |
| 20260508051525 | 6 | 37 | 3.2 | 8.0 | 0.00 | 1.93 | 0.00 | 96 | 1002.3 |
| 20260508050029 | 6 | 10 | 1.6 | 6.4 | 0.00 | 1.93 | 0.00 | 96 | 1002.3 |
| 20260508044523 | 6 | 9 | 3.2 | 9.7 | 0.00 | 1.93 | 0.00 | 96 | 1002.1 |
| 20260508043022 | 6 | 52 | 6.4 | 16.1 | 0.00 | 1.93 | 0.00 | 95 | 1002.0 |
| 20260508041521 | 6 | 252 | 0.0 | 3.2 | 0.00 | 1.93 | 0.00 | 96 | 1002.6 |
| 20260508040017 | 6 | 248 | 0.0 | 3.2 | 0.00 | 1.93 | 0.00 | 95 | 1002.5 |
| 20260508034516 | 7 | 222 | 0.0 | 3.2 | 0.00 | 1.93 | 0.00 | 95 | 1002.5 |
| 20260508033009 | 8 | 82 | 0.0 | 4.8 | 0.00 | 1.93 | 0.00 | 96 | 1002.3 |
| 20260508031506 | 8 | 231 | 0.0 | 0.0 | 0.00 | 1.93 | 0.00 | 95 | 1002.2 |
| 20260508030003 | 8 | 231 | 0.0 | 3.2 | 0.00 | 1.93 | 1.93 | 96 | 1002.1 |
| 20260508024502 | 8 | 86 | 0.0 | 8.0 | 0.00 | 1.93 | 1.93 | 96 | 1002.2 |
| 20260508023003 | 8 | 92 | 4.8 | 11.3 | 0.03 | 1.93 | 1.93 | 96 | 1002.1 |
| 20260508021501 | 7 | 309 | 0.0 | 3.2 | 0.05 | 1.93 | 1.93 | 95 | 1002.7 |
| 20260508020001 | 8 | 79 | 0.0 | 3.2 | 0.08 | 1.93 | 1.93 | 96 | 1002.5 |
| 20260508014600 | 8 | 183 | 0.0 | 3.2 | 0.08 | 1.93 | 1.93 | 96 | 1003.0 |
| 20260508013059 | 7 | 261 | 0.0 | 1.6 | 0.10 | 1.91 | 1.91 | 95 | 1002.8 |
| 20260508011606 | 8 | 260 | 0.0 | 1.6 | 0.10 | 1.88 | 1.88 | 95 | 1002.6 |
| 20260508010059 | 8 | 237 | 0.0 | 0.0 | 0.20 | 1.88 | 1.88 | 95 | 1002.6 |
| 20260508004602 | 8 | 247 | 0.0 | 0.0 | 0.25 | 1.85 | 1.85 | 95 | 1002.7 |
| 20260508003058 | 8 | 220 | 0.0 | 1.6 | 0.30 | 1.80 | 1.80 | 95 | 1002.7 |
| 20260508001559 | 7 | 164 | 4.8 | 12.9 | 0.33 | 1.78 | 1.78 | 95 | 1002.8 |
| 20260508000058 | 7 | 228 | 4.8 | 12.9 | 0.23 | 1.68 | 1.68 | 95 | 1002.9 |
| 20260507234558 | 7 | 200 | 12.9 | 24.1 | 0.15 | 1.60 | 1.60 | 95 | 1002.6 |
| 20260507233058 | 8 | 267 | 9.7 | 20.9 | 0.05 | 1.50 | 1.50 | 92 | 1002.3 |
| 20260507231549 | 8 | 218 | 11.3 | 22.5 | 0.00 | 1.42 | 1.42 | 91 | 1001.9 |
| 20260507230104 | 13 | 264 | 6.4 | 14.5 | 0.00 | 1.42 | 1.42 | 84 | 1001.3 |
| 20260507224551 | 13 | 231 | 8.0 | 24.1 | 0.00 | 1.42 | 1.42 | 83 | 1001.0 |
| 20260507223045 | 13 | 138 | 14.5 | 25.7 | 0.00 | 1.42 | 1.42 | 85 | 1000.9 |
| 20260507221546 | 13 | 111 | 11.3 | 24.1 | 0.00 | 1.42 | 1.42 | 84 | 1001.0 |
| 20260507220052 | 13 | 120 | 19.3 | 30.6 | 0.00 | 1.42 | 1.42 | 85 | 1000.7 |
| 20260507214544 | 12 | 123 | 20.9 | 38.6 | 0.00 | 1.42 | 1.42 | 85 | 1000.7 |
| 20260507213044 | 13 | 145 | 22.5 | 38.6 | 0.00 | 1.42 | 1.42 | 84 | 1000.6 |
| 20260507211544 | 13 | 141 | 22.5 | 40.2 | 0.00 | 1.42 | 1.42 | 85 | 1000.7 |
| 20260507210053 | 13 | 122 | 25.7 | 37.0 | 0.00 | 1.42 | 1.42 | 83 | 1000.7 |
| 20260507204541 | 13 | 110 | 20.9 | 37.0 | 0.05 | 1.42 | 1.42 | 85 | 1000.6 |
| 20260507203108 | 12 | 144 | 20.9 | 46.7 | 0.18 | 1.42 | 1.42 | 87 | 1000.7 |
| 20260507201540 | 12 | 117 | 29.0 | 57.9 | 0.33 | 1.42 | 1.42 | 87 | 1000.2 |
| 20260507200041 | 12 | 118 | 35.4 | 57.9 | 0.38 | 1.42 | 1.42 | 86 | 999.7 |
| 20260507194536 | 12 | 139 | 29.0 | 48.3 | 0.41 | 1.40 | 1.40 | 88 | 1000.9 |
| 20260507193035 | 12 | 161 | 20.9 | 30.6 | 0.36 | 1.24 | 1.24 | 88 | 1001.7 |
| 20260507191536 | 12 | 150 | 16.1 | 30.6 | 0.36 | 1.12 | 1.12 | 88 | 1002.8 |
| 20260507190030 | 12 | 152 | 16.1 | 43.5 | 0.46 | 1.07 | 1.07 | 88 | 1002.6 |
| 20260507184526 | 12 | 124 | 22.5 | 40.2 | 0.64 | 0.99 | 0.99 | 89 | 1003.1 |
| 20260507183024 | 12 | 140 | 20.9 | 37.0 | 0.81 | 0.89 | 0.89 | 90 | 1003.2 |
| 20260507181521 | 12 | 198 | 24.1 | 56.3 | 0.71 | 0.76 | 0.76 | 89 | 1003.5 |
| 20260507180022 | 12 | 204 | 27.4 | 48.3 | 0.61 | 0.61 | 0.61 | 90 | 1003.7 |
| 20260507174522 | 12 | 250 | 19.3 | 45.1 | 0.33 | 0.33 | 0.33 | 90 | 1004.1 |
| 20260507173018 | 13 | 209 | 32.2 | 54.7 | 0.08 | 0.08 | 0.08 | 87 | 1003.3 |